Home   Weather   Blackpool   Past weeks

Flag for United Kingdom Past Weather in Blackpool, England, United Kingdom — Yesterday and Last 2 Weeks

Now
55 °F

Clear.


Feels Like: 55 °F
Forecast: 49 / 65 °F
Wind: 3 mph from North

Location: Liverpool Airport

Current Time: Jun 24, 2018 at 12:52:28 am

Latest Report: Jun 24, 2018 at 12:20 am


Visibility: 10 mi

Pressure: 30.33 "Hg

Humidity: 82%

Dew Point: 50 °F

Location of BlackpoolLocation

Past Weather in Blackpool — Graph

°F

Blackpool Temperature Yesterday

Maximum temperature yesterday: 66 °F (at 5:20 pm)
Minimum temperature yesterday: 50 °F (at 4:20 am)
Average temperature yesterday: 59 °F

High & Low Weather Summary for the Past Weeks

 TemperatureHumidityPressure
High75 °F (Jun 10, 2:20 pm)100% (Jun 10, 4:50 am)30.48 "Hg (Jun 10, 4:50 am)
Low50 °F (Jun 23, 4:20 am)44% (Jun 10, 5:20 pm)29.53 "Hg (Jun 14, 6:20 am)
Average61 °F71%30.06 "Hg
* Reported Jun 8 11:20 pm — Jun 23 11:50 pm, Blackpool. Weather by CustomWeather, © 2018

Note: Actual official high and low records may vary slightly from our data, if they occured in-between our weather recording intervals... More about our weather records

Advertising

Blackpool Weather History for the Previous 24 Hours

Scroll right to see more
 ConditionsComfort  
Time TempWeatherWind HumidityBarometerVisibility
11:50 pm
Sat, Jun 23
55 °FClear.3 mph77%30.33 "Hg10 mi
11:20 pm57 °FClear.3 mph72%30.33 "Hg10 mi
10:50 pm57 °FClear.5 mph72%30.33 "Hg10 mi
10:20 pm57 °FClear.5 mph72%30.33 "Hg10 mi
9:50 pm57 °FClear.8 mph67%30.33 "Hg10 mi
9:20 pm57 °FSunny.8 mph63%30.33 "Hg10 mi
8:50 pm59 °FSunny.8 mph59%30.33 "Hg10 mi
8:20 pm59 °FSunny.9 mph55%30.33 "Hg10 mi
7:50 pm61 °FSunny.9 mph55%30.33 "Hg10 mi
7:20 pm63 °FSunny.10 mph52%30.33 "Hg10 mi
6:50 pm63 °FPassing clouds.12 mph56%30.33 "HgN/A
6:20 pm63 °FSunny.14 mph49%30.33 "Hg10 mi
5:50 pm64 °FPassing clouds.13 mph46%30.36 "HgN/A
5:20 pm66 °FPassing clouds.12 mph46%30.36 "HgN/A
4:50 pm64 °FSunny.14 mph49%30.36 "Hg10 mi
4:20 pm64 °FSunny.13 mph52%30.36 "Hg10 mi
3:50 pm64 °FPassing clouds.13 mph49%30.36 "HgN/A
2:50 pm64 °FPassing clouds.13 mph56%30.39 "HgN/A
2:20 pm64 °FPassing clouds.13 mph56%30.39 "HgN/A
1:50 pm63 °FPassing clouds.13 mph59%30.39 "HgN/A
1:20 pm63 °FPassing clouds.12 mph64%30.39 "HgN/A
12:50 pm63 °FPassing clouds.15 mph59%30.39 "HgN/A
12:20 pm63 °FPassing clouds.15 mph59%30.42 "HgN/A
11:50 am63 °FPassing clouds.15 mph64%30.39 "HgN/A
11:20 am63 °FPassing clouds.13 mph64%30.42 "HgN/A
10:50 am61 °FPassing clouds.13 mph68%30.42 "HgN/A
10:20 am63 °FPassing clouds.12 mph64%30.42 "HgN/A
9:50 am61 °FPassing clouds.12 mph63%30.42 "HgN/A
9:20 am59 °FPassing clouds.14 mph63%30.42 "HgN/A
8:50 am61 °FPassing clouds.10 mph63%30.42 "HgN/A
8:20 am59 °FPassing clouds.9 mph68%30.42 "HgN/A
7:50 am57 °FPassing clouds.9 mph72%30.42 "HgN/A
7:20 am55 °FPassing clouds.10 mph88%30.42 "HgN/A
6:50 am54 °FSunny.7 mph88%30.42 "Hg10 mi
6:20 am52 °FSunny.6 mph94%30.42 "Hg10 mi
5:50 am52 °FSunny.5 mph94%30.42 "Hg10 mi
5:20 am50 °FSunny.7 mph94%30.42 "Hg10 mi
4:50 am50 °FSunny.6 mph94%30.42 "Hg10 mi
4:20 am50 °FClear.5 mph88%30.42 "Hg10 mi
3:50 am54 °FClear.7 mph82%30.42 "Hg10 mi
3:20 am54 °FClear.8 mph82%30.42 "Hg10 mi
2:50 am55 °FClear.8 mph77%30.42 "Hg10 mi
2:20 am54 °FClear.8 mph77%30.42 "Hg10 mi
1:50 am55 °FClear.2 mph82%30.42 "Hg10 mi
1:20 am55 °FClear.8 mph77%30.42 "Hg10 mi
12:50 am54 °FClear.8 mph82%30.42 "Hg10 mi
12:20 am54 °FClear.7 mph82%30.42 "Hg10 mi
Weather by CustomWeather, © 2018

See weather overview